This is the latest recevied weather packets stored in our database for station/object KD4EED. If no packets are shown the sender has not sent any weather packets the latest 10 day(s).
| Time | Temp. | Humidity | Pressure | Rain* | Wind** | Luminosity | Snow |
|---|---|---|---|---|---|---|---|
| 1777602442 | 17.78° C | 72% | 1008.9 hPa | - | - | 6 W/m² | - |
| 1777602139 | 17.78° C | 72% | 1008.7 hPa | - | - | 8 W/m² | - |
| 1777601834 | 18.33° C | 71% | 1008.6 hPa | - | - | 10 W/m² | - |
| 1777601530 | 18.33° C | 71% | 1008.7 hPa | - | - | 13 W/m² | - |
| 1777601225 | 18.89° C | 69% | 1008.5 hPa | - | - | 16 W/m² | - |
| 1777600923 | 18.89° C | 68% | 1008.6 hPa | - | - | 20 W/m² | - |
| 1777600617 | 18.89° C | 68% | 1008.5 hPa | - | - | 22 W/m² | - |
| 1777600314 | 19.44° C | 68% | 1008.6 hPa | - | - | 25 W/m² | - |
| 1777600010 | 19.44° C | 65% | 1008.4 hPa | - | - | 28 W/m² | - |
| 1777599706 | 20° C | 63% | 1008.6 hPa | - | - | 31 W/m² | - |
| 1777599403 | 20° C | 63% | 1008.5 hPa | - | - | 40 W/m² | - |
| 1777599100 | 20° C | 63% | 1008.3 hPa | - | - | 46 W/m² | - |
| 1777598799 | 20.56° C | 62% | 1008.4 hPa | - | - | 61 W/m² | - |
| 1777598492 | 20.56° C | 62% | 1008.5 hPa | - | - | 68 W/m² | - |
| 1777598192 | 20.56° C | 61% | 1008.4 hPa | - | - | 73 W/m² | - |
| 1777597891 | 21.11° C | 60% | 1008.4 hPa | - | - | 80 W/m² | - |
| 1777597586 | 21.11° C | 59% | 1008.4 hPa | - | - | 86 W/m² | - |
| 1777597282 | 21.11° C | 59% | 1008.5 hPa | - | - | 91 W/m² | - |
| 1777596977 | 21.67° C | 59% | 1008.3 hPa | - | - | 98 W/m² | - |
| 1777596674 | 21.67° C | 58% | 1008.3 hPa | - | - | 109 W/m² | - |
| 1777596371 | 21.67° C | 59% | 1008.3 hPa | - | - | 125 W/m² | - |
| 1777596069 | 21.67° C | 59% | 1008.4 hPa | - | - | 154 W/m² | - |
| 1777595763 | 21.67° C | 59% | 1008.4 hPa | - | - | 188 W/m² | - |
| 1777595459 | 22.22° C | 58% | 1008.4 hPa | - | - | 217 W/m² | - |
| 1777595155 | 22.22° C | 58% | 1008.4 hPa | - | - | 243 W/m² | - |
* Rain since midnight (hover to see other rain measurements)
** Current wind speed in m/s (hover to see current wind gust speed)